• En España
  • Lista de países
  • Para 7 días
  • Temperatura del agua
  • Mapa Satelital
  • El tiempo en el mapa
  • Informadores
  • user-avatar
    Iniciar sesión

    Tiempo cada hora Dobromierz

    Hoy, 22 Julio, Domingo

    Tiempo Temperatura Precipitaciones Viento Presión Humedad
    00:00 +19°C° 0 mm 1 mps 732 mmHg 77%
    01:00 +18°C° 0 mm 1 mps 732 mmHg 78%
    02:00 +18°C° 0 mm 1 mps 732 mmHg 79%
    03:00 +16°C° 0 mm 1 mps 732 mmHg 80%
    04:00 +16°C° 0 mm 1 mps 732 mmHg 82%
    05:00 +18°C° 0 mm 1 mps 732 mmHg 78%
    06:00 +18°C° 0 mm 2 mps 733 mmHg 74%
    07:00 +19°C° 0 mm 2 mps 733 mmHg 71%
    08:00 +21°C° 0 mm 2 mps 733 mmHg 66%
    09:00 +22°C° 0 mm 3 mps 733 mmHg 61%
    10:00 +25°C° 0 mm 3 mps 733 mmHg 56%
    11:00 +25°C° 0 mm 3 mps 733 mmHg 52%
    12:00 +26°C° 0 mm 4 mps 733 mmHg 49%
    13:00 +27°C° 0 mm 4 mps 733 mmHg 46%
    14:00 +27°C° 0 mm 4 mps 733 mmHg 46%
    15:00 +27°C° 0 mm 4 mps 733 mmHg 46%
    16:00 +27°C° 0 mm 4 mps 733 mmHg 47%
    17:00 +25°C° 0 mm 3 mps 733 mmHg 53%
    18:00 +24°C° 0 mm 3 mps 733 mmHg 60%
    19:00 +23°C° 0 mm 2 mps 733 mmHg 66%
    20:00 +20°C° 0 mm 2 mps 733 mmHg 70%
    21:00 +19°C° 0 mm 2 mps 733 mmHg 73%
    22:00 +18°C° 0 mm 2 mps 733 mmHg 76%
    23:00 +17°C° 0 mm 2 mps 734 mmHg 78%

    Mañana, 23 Julio, Lunes

    Tiempo Temperatura Precipitaciones Viento Presión Humedad
    00:00 +17°C° 0 mm 2 mps 734 mmHg 79%
    01:00 +17°C° 0 mm 2 mps 734 mmHg 80%
    02:00 +16°C° 0 mm 2 mps 734 mmHg 81%
    03:00 +16°C° 0 mm 2 mps 734 mmHg 82%
    04:00 +16°C° 0 mm 2 mps 734 mmHg 83%
    05:00 +17°C° 0 mm 2 mps 734 mmHg 78%
    06:00 +19°C° 0 mm 2 mps 734 mmHg 74%
    07:00 +20°C° 0 mm 2 mps 735 mmHg 69%
    08:00 +23°C° 0 mm 2 mps 735 mmHg 63%
    09:00 +25°C° 0 mm 2 mps 735 mmHg 58%
    10:00 +26°C° 0 mm 2 mps 735 mmHg 52%
    11:00 +27°C° 0 mm 3 mps 735 mmHg 51%
    12:00 +27°C° 0 mm 3 mps 735 mmHg 49%
    13:00 +28°C° 0 mm 3 mps 735 mmHg 48%
    14:00 +28°C° 0,3 mm 3 mps 735 mmHg 51%
    15:00 +27°C° 0,3 mm 3 mps 734 mmHg 54%
    16:00 +27°C° 0,3 mm 3 mps 734 mmHg 57%
    17:00 +26°C° 0,3 mm 3 mps 735 mmHg 61%
    18:00 +25°C° 0,3 mm 2 mps 735 mmHg 66%
    19:00 +24°C° 0,3 mm 2 mps 735 mmHg 71%
    20:00 +23°C° 0 mm 1 mps 735 mmHg 73%
    21:00 +21°C° 0 mm 1 mps 735 mmHg 75%
    22:00 +20°C° 0 mm 1 mps 736 mmHg 77%
    23:00 +20°C° 0 mm 1 mps 736 mmHg 80%

    Pasado mañana, 24 Julio, Martes

    Tiempo Temperatura Precipitaciones Viento Presión Humedad
    00:00 +19°C° 0 mm 1 mps 736 mmHg 82%
    01:00 +19°C° 0 mm 1 mps 735 mmHg 84%
    02:00 +18°C° 0 mm 1 mps 736 mmHg 86%
    03:00 +18°C° 0 mm 1 mps 736 mmHg 88%
    04:00 +16°C° 0 mm 1 mps 736 mmHg 90%
    05:00 +19°C° 0 mm 1 mps 736 mmHg 87%
    06:00 +19°C° 0 mm 2 mps 736 mmHg 83%
    07:00 +20°C° 0 mm 2 mps 736 mmHg 79%
    08:00 +23°C° 0 mm 2 mps 736 mmHg 73%
    09:00 +24°C° 0 mm 2 mps 736 mmHg 66%
    10:00 +25°C° 0 mm 3 mps 736 mmHg 60%
    11:00 +26°C° 0 mm 3 mps 736 mmHg 57%
    12:00 +27°C° 0 mm 3 mps 736 mmHg 54%
    13:00 +27°C° 0 mm 3 mps 735 mmHg 52%
    14:00 +27°C° 0 mm 3 mps 735 mmHg 51%
    15:00 +28°C° 0 mm 3 mps 735 mmHg 49%
    16:00 +28°C° 0 mm 3 mps 735 mmHg 48%
    17:00 +27°C° 0 mm 2 mps 735 mmHg 54%
    18:00 +26°C° 0 mm 2 mps 735 mmHg 60%
    19:00 +24°C° 0 mm 2 mps 735 mmHg 66%
    20:00 +23°C° 0,1 mm 1 mps 735 mmHg 70%
    21:00 +21°C° 0,1 mm 1 mps 735 mmHg 75%
    22:00 +20°C° 0,1 mm 1 mps 735 mmHg 80%
    23:00 +20°C° 0 mm 1 mps 735 mmHg 82%

    25 Julio, Miércoles

    Tiempo Temperatura Precipitaciones Viento Presión Humedad
    00:00 +19°C° 0 mm 1 mps 735 mmHg 84%
    01:00 +19°C° 0 mm 1 mps 735 mmHg 86%
    02:00 +19°C° 0 mm 1 mps 735 mmHg 88%
    03:00 +18°C° 0 mm 1 mps 735 mmHg 90%
    04:00 +18°C° 0 mm 1 mps 735 mmHg 92%
    05:00 +20°C° 0 mm 1 mps 735 mmHg 88%
    06:00 +21°C° 0 mm 1 mps 736 mmHg 84%
    07:00 +21°C° 0 mm 2 mps 736 mmHg 80%
    08:00 +24°C° 0,1 mm 2 mps 736 mmHg 74%
    09:00 +25°C° 0,1 mm 2 mps 736 mmHg 68%
    10:00 +26°C° 0,1 mm 3 mps 736 mmHg 61%
    11:00 +27°C° 0,2 mm 3 mps 736 mmHg 58%
    12:00 +28°C° 0,2 mm 3 mps 736 mmHg 54%
    13:00 +28°C° 0,2 mm 3 mps 735 mmHg 50%
    14:00 +28°C° 0 mm 3 mps 735 mmHg 50%
    15:00 +28°C° 0 mm 4 mps 735 mmHg 50%
    16:00 +28°C° 0 mm 4 mps 735 mmHg 50%
    17:00 +27°C° 0 mm 3 mps 735 mmHg 56%
    18:00 +26°C° 0 mm 3 mps 735 mmHg 62%
    19:00 +25°C° 0 mm 2 mps 735 mmHg 68%
    20:00 +24°C° 0 mm 2 mps 735 mmHg 72%
    21:00 +22°C° 0 mm 1 mps 735 mmHg 76%
    22:00 +21°C° 0 mm 1 mps 736 mmHg 79%
    23:00 +21°C° 0 mm 1 mps 736 mmHg 81%

    26 Julio, Jueves

    Tiempo Temperatura Precipitaciones Viento Presión Humedad
    00:00 +20°C° 0 mm 1 mps 736 mmHg 82%
    01:00 +20°C° 0 mm 1 mps 736 mmHg 84%
    02:00 +19°C° 0 mm 1 mps 736 mmHg 85%
    03:00 +19°C° 0 mm 1 mps 736 mmHg 87%
    04:00 +18°C° 0 mm 1 mps 736 mmHg 89%
    05:00 +20°C° 0 mm 1 mps 736 mmHg 83%
    06:00 +21°C° 0 mm 1 mps 737 mmHg 78%
    07:00 +23°C° 0 mm 1 mps 737 mmHg 73%
    08:00 +24°C° 0 mm 2 mps 737 mmHg 67%
    09:00 +26°C° 0 mm 2 mps 737 mmHg 61%
    10:00 +27°C° 0 mm 3 mps 737 mmHg 55%
    11:00 +28°C° 0 mm 3 mps 737 mmHg 52%
    12:00 +29°C° 0 mm 3 mps 737 mmHg 49%
    13:00 +29°C° 0 mm 3 mps 737 mmHg 46%
    14:00 +29°C° 0 mm 3 mps 737 mmHg 46%
    15:00 +29°C° 0 mm 4 mps 736 mmHg 46%
    16:00 +29°C° 0 mm 4 mps 736 mmHg 46%
    17:00 +28°C° 0 mm 3 mps 736 mmHg 52%
    18:00 +27°C° 0 mm 3 mps 736 mmHg 59%
    19:00 +25°C° 0 mm 2 mps 736 mmHg 65%
    20:00 +24°C° 0 mm 2 mps 737 mmHg 69%
    21:00 +23°C° 0 mm 2 mps 737 mmHg 74%
    22:00 +21°C° 0 mm 1 mps 737 mmHg 78%
    23:00 +21°C° 0 mm 1 mps 737 mmHg 80%

    27 Julio, Viernes

    Tiempo Temperatura Precipitaciones Viento Presión Humedad
    00:00 +20°C° 0 mm 1 mps 737 mmHg 82%
    01:00 +20°C° 0 mm 1 mps 737 mmHg 85%
    02:00 +19°C° 0 mm 1 mps 737 mmHg 87%
    03:00 +19°C° 0 mm 1 mps 737 mmHg 89%
    04:00 +18°C° 0 mm 1 mps 737 mmHg 91%
    05:00 +20°C° 0 mm 1 mps 737 mmHg 86%
    06:00 +21°C° 0 mm 1 mps 737 mmHg 81%
    07:00 +23°C° 0 mm 1 mps 737 mmHg 76%
    08:00 +24°C° 0 mm 2 mps 737 mmHg 69%
    09:00 +25°C° 0 mm 2 mps 737 mmHg 62%
    10:00 +27°C° 0 mm 3 mps 737 mmHg 55%
    11:00 +28°C° 0 mm 3 mps 737 mmHg 52%
    12:00 +28°C° 0 mm 3 mps 736 mmHg 50%
    13:00 +29°C° 0 mm 3 mps 736 mmHg 47%
    14:00 +29°C° 0 mm 3 mps 736 mmHg 46%
    15:00 +30°C° 0 mm 3 mps 736 mmHg 46%
    16:00 +30°C° 0 mm 3 mps 736 mmHg 46%
    17:00 +28°C° 0 mm 2 mps 735 mmHg 52%
    18:00 +27°C° 0 mm 2 mps 735 mmHg 59%
    19:00 +26°C° 0 mm 2 mps 735 mmHg 65%
    20:00 +25°C° 0 mm 1 mps 735 mmHg 70%
    21:00 +23°C° 0 mm 1 mps 735 mmHg 76%
    22:00 +22°C° 0 mm 1 mps 735 mmHg 81%
    23:00 +21°C° 0 mm 1 mps 735 mmHg 83%
    Mostrar más